Regional Weather Roundup
Issued by NWS

Home | Current Version | Previous Version | Graphics & Text | Print | Product List | Glossary On
Versions: 1 2 3 4 5 6 7 8 9 10 11 12 13 14 15 16 17 18 19 20 21 22 23 24 25 26 27 28 29 30 31 32 33 34 35 36 37 38 39 40 41 42 43 44 45 46 47 48 49 50
000
ASUS43 KFSD 220502
RWRSD

WEATHER ROUNDUP FOR SOUTH DAKOTA
NATIONAL WEATHER SERVICE SIOUX FALLS SD
1200 AM CDT FRI SEP 22 2017

NOTE: "FAIR" INDICATES FEW OR NO CLOUDS BELOW 12,000 FEET WITH NO
SIGNIFICANT WEATHER AND/OR OBSTRUCTIONS TO VISIBILITY.


SDZ001>005-009-010-012>017-220600-
NORTHWEST AND NORTH CENTRAL SOUTH DAKOTA

CITY           SKY/WX    TMP DP  RH WIND       PRES   REMARKS
BUFFALO          N/A     52  37  56 N15       29.76S
FAITH            N/A     57  44  62 N18       29.74F
MOBRIDGE       CLEAR     65  52  62 NE15      29.70S
$$

SDZ012>016-024>037-041>051-057-063-072>074-220600-
SOUTHWEST AND SOUTH CENTRAL SOUTH DAKOTA

CITY           SKY/WX    TMP DP  RH WIND       PRES   REMARKS
RAPID CTY ARPT NOT AVBL
PIERRE         CLEAR     64  54  69 NE7       29.61F
CUSTER         CLEAR     52  36  54 NE10      29.81S
ELLSWORTH AFB  CLEAR     56  41  56 N16       29.77S
PHILIP         LGT RAIN  64  45  49 N15G25    29.65R
PINE RIDGE     CLEAR     64  43  46 VRB6      29.67F
SPEARFISH      FAIR      52  39  62 CALM      29.86R
WINNER         FAIR      69  63  81 CALM      29.61S
$$

SDZ004>011-016>023-039-040-220600-
NORTHEAST SOUTH DAKOTA

CITY           SKY/WX    TMP DP  RH WIND       PRES   REMARKS
ABERDEEN       CLEAR     70  66  87 E9        29.69S
WATERTOWN      CLEAR     74  72  93 SE6       29.72S
BROOKINGS      CLEAR     74  71  91 SE12      29.73S
SISSETON         N/A     67  66  97 CALM      29.72R
$$

SDZ017-020-022-023-036>040-048>070-220600-
SOUTHEAST SOUTH DAKOTA

CITY           SKY/WX    TMP DP  RH WIND       PRES   REMARKS
SIOUX FALLS    CLEAR     80  73  79 S18       29.72S
HURON          CLEAR     75  70  84 SE8       29.64F
CHAMBERLAIN    CLEAR     75  70  85 E9        29.61F
MITCHELL       CLEAR     78  71  79 SE13G23   29.64F
YANKTON        CLEAR     81  73  76 S18G25    29.69S
$$

ABBREVIATIONS USED IN REMARKS
   TC - TEMPERATURE IN CELSIUS
  WCI - WIND CHILL INDEX
   HX - HEAT INDEX
  VSB - VISIBILITY





USA.gov is the U.S. government's official web portal to all federal, state and local government web resources and services.